Location: Gajan
(43.0218°N, 1.1244°E)
Time: 15:41:05
(UTC+00:00)

BREEZE-M DEB (TANK) - Pass Details

Date: 22 April 2021
Orbit: 292 x 15380 km, 49.4° (Epoch: 10 May)

Event Time Altitude Azimuth Distance (km) Brightness Sun altitude
Rises 21:55:48 0° 295° (WNW) 6,107 9.0 -28.2°
Reaches altitude 10° 22:01:32 10° 297° (WNW) 3,525 7.6 -28.8°
Enters shadow 22:07:10 47° 311° (NW) 873 4.1 -29.3°
